Starlink 11396

operational
NORAD ID: 62015 Int'l Des: 2024-213 Owner: SPXS Country: US Constellation: starlink
LEOCIRCULAR

关于 Starlink 11396

正在加载描述...

实时位置

正在加载3D地球...

即将过境

高度历史

Altitude vs Time

uPlot chart will show altitude changes over time

两行轨道根数

1 62015U 24213H 25308.23162534 .00112837 00000-0 92198-3 0 9994
2 62015 53.1566 299.4962 0001266 77.0895 283.0264 15.69752438 55212
Epoch: Nov 4, 2025 • Age: 26 hours

当前状态

高度 362.5 km
速度 7.70 km/s
星下点 43.84°N, 178.21°E
发射日期 Nov 18, 2024
运行时间 0.9 years
类型 internet

技术详情

分类 Payload
质量 960.00 kg
干质量 910.00 kg
总质量 960.00 kg
长度 0.30 m
直径 4.10 m
跨度 29.00 m
形状 Box + pan
制造商 SPXS
平台类型 Starlink V2MD
阶段状态 In Orbit
所有者/国家 SPXS/US

大型星座

Loading constellations...